Location: Newark
(43.0967°N, 75.2319°W)
Time: 01:15:22
(UTC+00:00)

N. Korean satellite - Pass Details

Date: 01 September 2019
Orbit: 455 x 509 km, 97.2° (Epoch: 18 September)

Event Time Altitude Azimuth Distance (km) Brightness Sun altitude
Rises 09:54:13 0° 34° (NE) 2,532 11.1 -6.3°
Reaches altitude 10° 09:57:29 10° 68° (ENE) 1,633 11.1 -5.7°
Maximum altitude 09:58:50 12° 90° (E) 1,515 10.5 -5.5°
Drops below altitude 10° 10:00:10 10° 113° (ESE) 1,617 10.1 -5.2°
Sets 10:03:22 0° 147° (SSE) 2,474 10.4 -4.7°
